Flag for United Arab Emirates Weather past 2 weeks in Dubai, Dubai, United Arab Emirates

Now
93 °F

Passing clouds.


Feels Like: 113 °F
Forecast: 92 / 104 °F
Wind: 5 mph from Northeast

Location: Dubai International Airport

Current Time: Sep 1, 2014 at 11:01:27 PM

Latest Report: Sep 1, 2014 at 10:00 PM


Visibility: N/A

Pressure: 29.50 "Hg

Humidity: 67%

Dew point: 81 °F

Location of DubaiLocation

Historic Weather in Dubai — Graph

°F

Dubai temperature yesterday

Maximum temperature yesterday: 102 °F (at 11:00 AM)
Minimum temperature yesterday: 90 °F (at 6:00 AM)
Average temperature yesterday: 95 °F

Past Weeks' High & Low Weather Summary

 TemperatureHumidityPressure
High109 °F (Aug 18, 2:00 PM)89% (Aug 22, 6:00 AM)29.77 "Hg (Aug 22, 6:00 AM)
Low86 °F (Sep 1, 6:00 AM)14% (Sep 1, 11:00 AM)29.47 "Hg (Aug 22, 1:00 AM)
Average96 °F50%29.60 "Hg
* Reported Aug 17 9:00 PM — Sep 1 9:00 PM, Dubai, Weather by CustomWeather, © 2014

Note: Actual official high and low records may vary slightly from our data, if they occured in-between our weather recording intervals... More about our weather records

Advertising

Dubai weather history for previous 24 hours

 ConditionsComfort  
Time TempWeatherWind HumidityBarometerVisibility
9:00 PM
Sep 1
91 °FPassing clouds.6 mph75%29.50 "HgN/A
8:00 PM91 °FPassing clouds.9 mph75%29.50 "HgN/A
7:00 PM93 °FClear.3 mph67%29.50 "Hg10 mi
6:00 PM95 °FPassing clouds.14 mph56%29.47 "HgN/A
5:00 PM95 °FPassing clouds.13 mph63%29.47 "HgN/A
4:00 PM99 °FPassing clouds.16 mph42%29.47 "HgN/A
3:00 PM99 °FSunny.18 mph37%29.47 "Hg10 mi
2:00 PM100 °FSunny.17 mph37%29.50 "Hg10 mi
1:00 PM102 °FSunny.15 mph33%29.50 "Hg10 mi
12:00 PM106 °FPassing clouds.5 mph20%29.53 "HgN/A
11:00 AM106 °FSunny.3 mph14%29.53 "Hg10 mi
10:00 AM102 °FSunny.5 mph24%29.56 "Hg10 mi
9:00 AM97 °FPassing clouds.6 mph32%29.53 "HgN/A
8:00 AM90 °FSunny.7 mph71%29.53 "Hg10 mi
7:00 AM86 °FClear.8 mph89%29.53 "Hg5 mi
6:00 AM86 °FClear.8 mph89%29.53 "Hg5 mi
5:00 AM88 °FPassing clouds.6 mph84%29.50 "HgN/A
4:00 AM90 °FPassing clouds.7 mph79%29.50 "HgN/A
3:00 AM88 °FPassing clouds.5 mph89%29.53 "HgN/A
2:00 AM90 °FPassing clouds.6 mph79%29.50 "HgN/A
1:00 AM91 °FPassing clouds.3 mph56%29.53 "HgN/A
12:00 AM93 °FClear.2 mph53%29.53 "Hg10 mi
11:00 PM
Aug 31
93 °FPassing clouds.6 mph49%29.53 "HgN/A
Weather by CustomWeather, © 2014

See weather overviewHow to use our weather pages